Date,TemperatureHighF,TemperatureAvgF,TemperatureLowF,DewpointHighF,DewpointAvgF,DewpointLowF,HumidityHigh,HumidityAvg,HumidityLow,PressureMaxIn,PressureMinIn,WindSpeedMaxMPH,WindSpeedAvgMPH,GustSpeedMaxMPH,PrecipitationSumIn
2013-2-1,30.4,23.8,12.9,20.9,3.8,-10.1,81,44,19,30.39,29.81,13,3,22,0.00
2013-2-2,31.5,21.4,9.5,19.8,8.8,0.2,75,59,32,30.39,30.01,8,1,12,0.00
2013-2-3,37.2,29.9,24.1,26.8,20.0,4.9,81,68,35,30.01,29.82,12,1,24,0.00
2013-2-4,44.6,31.7,21.2,16.7,8.7,3.1,58,39,18,30.10,29.88,9,2,19,0.00
2013-2-5,41.7,34.0,27.7,29.1,24.9,15.5,84,69,58,29.95,29.85,4,0,7,0.00
2013-2-6,50.7,37.2,24.4,31.4,23.4,16.6,88,61,27,30.35,29.94,8,2,14,0.00
2013-2-7,39.6,33.9,22.6,23.9,19.2,14.0,82,56,40,30.42,30.19,8,2,14,0.00
2013-2-8,41.9,35.7,31.3,34.4,26.7,16.5,88,71,48,30.19,29.81,13,2,21,0.12
2013-2-9,45.9,34.0,20.3,17.0,10.1,-4.1,65,39,12,30.41,30.02,12,4,22,0.00
2013-2-10,49.5,33.0,14.4,21.8,8.8,-6.3,79,44,10,30.47,30.19,9,2,17,0.00
2013-2-11,70.0,51.4,35.6,45.2,29.6,0.5,87,52,10,30.19,29.72,11,2,18,0.06
2013-2-12,66.6,49.1,34.2,21.6,13.1,1.3,58,27,10,30.00,29.85,11,2,21,0.00
2013-2-13,45.9,34.4,26.2,30.0,24.6,18.8,87,69,40,29.96,29.68,5,0,8,0.06
2013-2-14,56.8,39.2,28.6,31.0,24.6,13.8,89,60,19,30.02,29.80,4,0,8,0.17
2013-2-15,61.2,39.2,26.2,35.8,26.6,18.3,89,65,20,30.05,29.92,8,1,14,0.21
2013-2-16,38.5,34.0,30.6,30.6,25.3,14.8,90,73,41,30.02,29.89,5,1,10,0.01
2013-2-17,31.5,25.5,21.9,10.5,2.1,-7.0,57,37,21,30.24,29.89,11,4,20,0.01
2013-2-18,52.0,36.3,15.6,6.0,-2.3,-11.5,57,24,10,30.38,30.20,7,2,11,0.00
2013-2-19,60.6,45.0,34.3,39.1,20.5,-4.8,76,42,10,30.20,29.69,11,3,22,0.04
2013-2-20,41.9,32.6,23.9,14.5,6.1,-3.3,44,33,16,30.19,29.87,11,4,18,0.00
2013-2-21,42.3,29.4,22.3,13.0,6.6,2.5,58,39,20,30.34,30.15,10,3,18,0.00
2013-2-22,33.3,30.4,25.2,24.9,18.9,12.0,72,62,46,30.39,30.17,7,2,12,0.00
2013-2-23,58.1,40.0,32.5,35.6,29.8,24.2,88,68,40,30.18,29.85,4,1,6,0.00
2013-2-24,54.9,41.3,30.7,39.1,22.5,2.7,90,54,13,30.16,29.83,11,3,22,0.00
2013-2-25,53.4,34.2,21.2,19.3,12.6,0.8,73,46,13,30.24,30.15,4,1,10,0.00
2013-2-26,38.8,33.1,23.5,34.2,25.8,15.3,88,75,48,30.22,29.85,5,1,8,0.20
2013-2-27,46.8,38.7,37.4,34.2,33.0,26.4,88,81,45,29.85,29.67,2,1,8,0.56
2013-2-28,46.2,41.2,34.9,32.6,23.1,16.7,74,49,32,29.77,29.66,8,2,16,0.00